TimeCDT,TemperatureF,Dew PointF,Humidity,Sea Level PressureIn,VisibilityMPH,Wind Direction,Wind SpeedMPH,Gust SpeedMPH,PrecipitationIn,Events,Conditions,WindDirDegrees,DateUTC
12:56 AM,30.0,27.1,89,30.31,10.0,South,5.8,-,N/A,,Clear,170,2013-10-26 05:56:00
1:56 AM,30.0,26.1,85,30.29,10.0,South,5.8,-,N/A,,Clear,170,2013-10-26 06:56:00
2:56 AM,29.1,26.1,88,30.28,10.0,South,4.6,-,N/A,,Clear,170,2013-10-26 07:56:00
3:56 AM,29.1,26.1,88,30.27,10.0,SSE,4.6,-,N/A,,Clear,160,2013-10-26 08:56:00
4:56 AM,29.1,25.2,85,30.26,10.0,South,6.9,-,N/A,,Clear,170,2013-10-26 09:56:00
5:56 AM,30.0,27.1,89,30.25,10.0,South,8.1,-,N/A,,Clear,180,2013-10-26 10:56:00
6:56 AM,32.0,28.0,85,30.25,8.0,South,4.6,-,N/A,,Mostly Cloudy,190,2013-10-26 11:56:00
7:56 AM,34.9,31.1,86,30.24,10.0,South,8.1,-,N/A,,Overcast,190,2013-10-26 12:56:00
8:56 AM,37.9,32.0,79,30.22,10.0,South,8.1,-,N/A,,Overcast,190,2013-10-26 13:56:00
9:56 AM,43.0,32.0,65,30.19,10.0,SSW,9.2,-,N/A,,Overcast,200,2013-10-26 14:56:00
10:56 AM,45.9,32.9,61,30.17,10.0,SSW,11.5,-,N/A,,Overcast,210,2013-10-26 15:56:00
11:56 AM,48.9,32.9,54,30.14,10.0,SW,15.0,23.0,N/A,,Overcast,220,2013-10-26 16:56:00
12:56 PM,55.9,32.9,42,30.09,10.0,SW,18.4,23.0,N/A,,Partly Cloudy,220,2013-10-26 17:56:00
1:56 PM,56.8,34.9,44,30.06,10.0,SW,13.8,20.7,N/A,,Clear,230,2013-10-26 18:56:00
2:56 PM,57.9,36.9,45,30.05,10.0,SW,18.4,23.0,N/A,,Clear,220,2013-10-26 19:56:00
3:56 PM,55.9,37.9,51,30.04,10.0,WSW,15.0,25.3,N/A,,Mostly Cloudy,250,2013-10-26 20:56:00
4:56 PM,54.9,38.8,55,30.04,10.0,SW,13.8,23.0,N/A,,Clear,220,2013-10-26 21:56:00
5:56 PM,52.0,38.8,61,30.07,10.0,WSW,11.5,20.7,N/A,,Clear,240,2013-10-26 22:56:00
6:56 PM,45.9,38.8,76,30.08,10.0,South,3.5,-,N/A,,Clear,190,2013-10-26 23:56:00
7:56 PM,45.0,37.9,76,30.10,10.0,SW,4.6,-,N/A,,Mostly Cloudy,230,2013-10-27 00:56:00
8:56 PM,45.0,38.8,79,30.10,10.0,SW,4.6,-,N/A,,Mostly Cloudy,220,2013-10-27 01:56:00
9:56 PM,45.0,39.9,82,30.11,10.0,Calm,Calm,-,N/A,,Partly Cloudy,0,2013-10-27 02:56:00
10:56 PM,43.0,39.9,89,30.12,10.0,WNW,4.6,-,N/A,,Clear,300,2013-10-27 03:56:00
11:56 PM,43.0,39.9,89,30.11,10.0,NNW,4.6,-,N/A,,Partly Cloudy,340,2013-10-27 04:56:00